sat.trackr.live / text

‹ back to catalog

STARLINK-11548 [DTC]

NORAD 62829 · 2025-019A

PAYLOAD ACTIVE UNKNOWN

§ Identity

Operator
Country
US
Launch date
2025-01-27
Launch site
AFETR
Launch vehicle
Mass (kg)
RCS (m²)

Purposes: comms

External: N2YO · Heavens-Above · Gunter

§ Orbital elements

Epoch: 2026-05-25T04:16:16.792032Z

Period
91.67 min
Inclination
43.0002°
Eccentricity
0.0002040
Mean motion
15.70902475 rev/d
Perigee alt
354.9 km
Apogee alt
357.7 km
Semi-major
6,734.5 km
B*
1.4913e-3
RAAN
204.6454°
Arg perigee
278.7615°
Mean anomaly
81.3021°
Rev number
7,591

§ Raw data

STARLINK-11548 [DTC]1 62829U 25019A   26145.17797213  .00196001  00000+0  14913-2 0  99952 62829  43.0002 204.6454 0002040 278.7615  81.3021 15.70902475 75912

JSON: /api/v1/satellites/62829 · /tle

For live sub-satellite position, see the globe view (requires WebGL).

§ Visibility from observer

Set your observer location to see the next 7 days of passes ≥ 10°. The values pass through the URL so the page stays shareable.

No JS? Fill the form by hand. The geolocation button needs JavaScript.